User: anonymous
Location: Hale Hill Observatory
(39.3806°N, 86.8431°W)
Time: 09:28:44
(UTC-04:00)
Language:

Cosmos 990 Rocket - Orbit

View from above orbital plane
View from above orbital plane
View from above satellite
View from above satellite

Ground track
Ground track

The orbit data is extracted from the following two-line orbital elements,

1 10677U 78019B   14292.54674865  .00000278  00000-0  97123-4 0  5392
2 10677 074.0369 296.2958 0016512 252.3027 107.6325 14.39697992922645
Epoch (UTC): 19 October 2014 13:07:19
Eccentricity: 0.0016512
inclination: 74.0369°
perigee height: 748 km
apogee height: 771 km
right ascension of ascending node: 296.2958°
argument of perigee: 252.3027°
revolutions per day: 14.39697992
mean anomaly at epoch: 107.6325°
orbit number at epoch: 92264

The dashed part of the orbit path shows where the satellite is in the earth's shadow,  

DLR